Time,TemperatureF,DewpointF,PressureIn,WindDirection,WindDirectionDegrees,WindSpeedMPH,WindSpeedGustMPH,Humidity,HourlyPrecipIn,Conditions,Clouds,dailyrainin,SoftwareType,DateUTC
2013-04-08 00:02:00,44.0,39.0,29.76,East,86,5.0,10.0,83,0.00,,,0.00,,2013-04-08 05:02:00,
2013-04-08 00:12:00,44.0,39.0,29.76,East,86,5.0,10.0,83,0.00,,,0.00,,2013-04-08 05:12:00,
2013-04-08 00:22:00,44.0,39.0,29.76,East,86,5.0,10.0,83,0.00,,,0.00,,2013-04-08 05:22:00,
2013-04-08 00:32:00,43.0,38.0,29.76,ENE,78,6.0,10.0,84,0.00,,,0.00,,2013-04-08 05:32:00,
2013-04-08 00:42:00,43.0,38.0,29.76,ENE,78,6.0,10.0,84,0.00,,,0.00,,2013-04-08 05:42:00,
2013-04-08 00:52:00,43.0,39.0,29.75,East,89,3.0,9.0,85,0.00,,,0.00,,2013-04-08 05:52:00,
2013-04-08 01:02:00,43.0,39.0,29.75,East,85,3.0,9.0,86,0.00,,,0.00,,2013-04-08 06:02:00,
2013-04-08 01:12:00,43.0,39.0,29.75,East,85,3.0,9.0,86,0.00,,,0.00,,2013-04-08 06:12:00,
2013-04-08 01:22:00,43.0,39.0,29.75,East,81,2.0,8.0,85,0.00,,,0.00,,2013-04-08 06:22:00,
2013-04-08 01:32:00,43.0,39.0,29.74,ENE,76,4.0,8.0,85,0.00,,,0.00,,2013-04-08 06:32:00,
2013-04-08 01:42:00,43.0,39.0,29.74,ENE,76,4.0,8.0,85,0.00,,,0.00,,2013-04-08 06:42:00,
2013-04-08 01:52:00,43.0,39.0,29.73,East,80,3.0,11.0,85,0.00,,,0.00,,2013-04-08 06:52:00,
2013-04-08 02:02:00,43.0,39.0,29.72,East,82,7.0,11.0,85,0.00,,,0.00,,2013-04-08 07:02:00,
2013-04-08 02:12:00,43.0,39.0,29.72,East,82,7.0,11.0,85,0.00,,,0.00,,2013-04-08 07:12:00,
2013-04-08 02:22:00,43.0,38.0,29.71,East,80,4.0,8.0,84,0.00,,,0.00,,2013-04-08 07:22:00,
2013-04-08 02:33:00,43.0,38.0,29.71,East,80,4.0,8.0,84,0.00,,,0.00,,2013-04-08 07:33:00,
2013-04-08 02:42:00,43.0,38.0,29.71,East,80,4.0,8.0,84,0.00,,,0.00,,2013-04-08 07:42:00,
2013-04-08 02:52:00,45.0,40.0,29.69,East,86,3.0,12.0,83,0.00,,,0.00,,2013-04-08 07:52:00,
2013-04-08 03:02:00,45.0,40.0,29.69,East,82,3.0,11.0,83,0.00,,,0.00,,2013-04-08 08:02:00,
2013-04-08 03:12:00,45.0,40.0,29.69,East,82,3.0,11.0,83,0.00,,,0.00,,2013-04-08 08:12:00,
2013-04-08 03:22:00,45.0,40.0,29.69,East,82,3.0,11.0,83,0.00,,,0.00,,2013-04-08 08:22:00,
2013-04-08 03:32:00,45.0,40.0,29.69,East,82,3.0,11.0,83,0.00,,,0.00,,2013-04-08 08:32:00,
2013-04-08 03:42:00,46.0,41.0,29.68,East,92,2.0,9.0,82,0.00,,,0.00,,2013-04-08 08:42:00,
2013-04-08 03:52:00,47.0,41.0,29.67,SE,129,7.0,12.0,80,0.00,,,0.00,,2013-04-08 08:52:00,
2013-04-08 04:02:00,47.0,41.0,29.66,SE,132,8.0,16.0,81,0.00,,,0.00,,2013-04-08 09:02:00,
2013-04-08 04:12:00,46.0,42.0,29.66,SE,124,6.0,13.0,85,0.02,,,0.02,,2013-04-08 09:12:00,
2013-04-08 04:22:00,46.0,42.0,29.66,SE,124,6.0,13.0,85,0.02,,,0.02,,2013-04-08 09:22:00,
2013-04-08 04:33:00,46.0,43.0,29.65,SE,134,9.0,11.0,89,0.07,,,0.07,,2013-04-08 09:33:00,
2013-04-08 04:43:00,46.0,43.0,29.65,SE,134,9.0,11.0,89,0.07,,,0.07,,2013-04-08 09:43:00,
2013-04-08 04:53:00,46.0,43.0,29.65,SE,134,9.0,11.0,89,0.07,,,0.07,,2013-04-08 09:53:00,
2013-04-08 05:03:00,46.0,44.0,29.63,NE,47,7.0,16.0,94,0.26,,,0.26,,2013-04-08 10:03:00,
2013-04-08 05:13:00,46.0,44.0,29.63,NE,47,7.0,16.0,94,0.26,,,0.26,,2013-04-08 10:13:00,
2013-04-08 05:23:00,46.0,45.0,29.61,East,90,4.0,12.0,95,0.31,,,0.33,,2013-04-08 10:23:00,
2013-04-08 05:33:00,47.0,46.0,29.58,SE,140,8.0,15.0,96,0.30,,,0.37,,2013-04-08 10:33:00,
2013-04-08 05:42:00,47.0,46.0,29.58,SE,140,8.0,15.0,96,0.30,,,0.37,,2013-04-08 10:42:00,
2013-04-08 05:52:00,47.0,46.0,29.58,SE,140,8.0,15.0,96,0.30,,,0.37,,2013-04-08 10:52:00,
2013-04-08 06:02:00,49.0,48.0,29.49,ENE,69,4.0,16.0,98,0.18,,,0.44,,2013-04-08 11:02:00,
2013-04-08 06:12:00,49.0,48.0,29.49,ENE,69,4.0,16.0,98,0.18,,,0.44,,2013-04-08 11:12:00,
2013-04-08 06:22:00,49.0,48.0,29.49,ENE,69,4.0,16.0,98,0.18,,,0.44,,2013-04-08 11:22:00,
2013-04-08 06:32:00,49.0,48.0,29.51,East,86,4.0,13.0,98,0.21,,,0.57,,2013-04-08 11:32:00,
2013-04-08 06:42:00,49.0,48.0,29.51,East,86,4.0,13.0,98,0.21,,,0.57,,2013-04-08 11:42:00,
2013-04-08 06:52:00,50.0,49.0,29.48,SE,128,24.0,29.0,98,0.23,,,0.64,,2013-04-08 11:52:00,
2013-04-08 07:03:00,52.0,52.0,29.49,SE,126,9.0,28.0,99,0.21,,,0.64,,2013-04-08 12:03:00,
2013-04-08 07:12:00,52.0,52.0,29.49,SE,126,9.0,28.0,99,0.21,,,0.64,,2013-04-08 12:12:00,
2013-04-08 07:23:00,53.0,53.0,29.48,SSE,153,11.0,21.0,99,0.19,,,0.64,,2013-04-08 12:23:00,
2013-04-08 07:33:00,54.0,54.0,29.46,SSE,150,6.0,19.0,99,0.05,,,0.64,,2013-04-08 12:33:00,
2013-04-08 07:40:00,55.0,54.0,29.45,SSW,198,16.0,24.0,96,0.01,,,0.65,,2013-04-08 12:40:00,
2013-04-08 07:42:00,54.0,54.0,29.46,SSE,150,6.0,19.0,99,0.05,,,0.64,,2013-04-08 12:42:00,
2013-04-08 07:52:00,55.0,55.0,29.45,SE,140,10.0,15.0,99,0.00,,,0.64,,2013-04-08 12:52:00,
2013-04-08 08:03:00,55.0,54.0,29.45,SSW,198,16.0,24.0,96,0.01,,,0.65,,2013-04-08 13:03:00,
2013-04-08 08:12:00,55.0,54.0,29.45,SSW,198,16.0,24.0,96,0.01,,,0.65,,2013-04-08 13:12:00,
2013-04-08 08:22:00,55.0,54.0,29.45,SSW,198,16.0,24.0,96,0.01,,,0.65,,2013-04-08 13:22:00,
2013-04-08 08:32:00,55.0,54.0,29.45,SSW,198,16.0,24.0,96,0.01,,,0.65,,2013-04-08 13:32:00,
2013-04-08 09:33:00,49.0,48.0,29.57,WSW,257,11.0,15.0,95,0.00,,,0.67,,2013-04-08 14:33:00,
2013-04-08 09:43:00,50.0,49.0,29.57,WSW,250,8.0,15.0,96,0.00,,,0.67,,2013-04-08 14:43:00,
2013-04-08 09:52:00,50.0,49.0,29.57,WSW,250,8.0,15.0,96,0.00,,,0.67,,2013-04-08 14:52:00,
2013-04-08 10:02:00,50.0,49.0,29.59,WNW,286,3.0,14.0,96,0.00,,,0.67,,2013-04-08 15:02:00,
2013-04-08 10:12:00,50.0,49.0,29.60,West,278,8.0,9.0,95,0.00,,,0.67,,2013-04-08 15:12:00,
2013-04-08 10:22:00,50.0,49.0,29.60,West,278,8.0,9.0,95,0.00,,,0.67,,2013-04-08 15:22:00,
2013-04-08 10:33:00,50.0,49.0,29.61,West,269,11.0,11.0,96,0.00,,,0.67,,2013-04-08 15:33:00,
2013-04-08 10:43:00,50.0,49.0,29.61,West,269,11.0,11.0,96,0.00,,,0.67,,2013-04-08 15:43:00,
2013-04-08 10:53:00,50.0,49.0,29.62,WNW,288,6.0,10.0,96,0.00,,,0.67,,2013-04-08 15:53:00,
2013-04-08 11:03:00,50.0,49.0,29.62,West,277,1.0,11.0,96,0.00,,,0.67,,2013-04-08 16:03:00,
2013-04-08 11:13:00,50.0,49.0,29.62,West,277,1.0,11.0,96,0.00,,,0.67,,2013-04-08 16:13:00,
2013-04-08 11:23:00,52.0,51.0,29.64,West,275,4.0,10.0,96,0.00,,,0.67,,2013-04-08 16:23:00,
2013-04-08 11:32:00,52.0,51.0,29.64,West,275,4.0,10.0,96,0.00,,,0.67,,2013-04-08 16:32:00,
2013-04-08 11:42:00,54.0,52.0,29.66,SW,234,10.0,12.0,94,0.00,,,0.67,,2013-04-08 16:42:00,
2013-04-08 11:53:00,54.0,52.0,29.66,SW,236,8.0,11.0,92,0.00,,,0.67,,2013-04-08 16:53:00,
2013-04-08 12:03:00,55.0,52.0,29.67,West,261,5.0,13.0,90,0.00,,,0.67,,2013-04-08 17:03:00,
2013-04-08 12:12:00,55.0,52.0,29.67,WSW,253,8.0,14.0,90,0.00,,,0.67,,2013-04-08 17:12:00,
2013-04-08 12:22:00,55.0,52.0,29.67,WSW,253,8.0,14.0,90,0.00,,,0.67,,2013-04-08 17:22:00,
2013-04-08 12:32:00,57.0,53.0,29.67,WNW,286,4.0,17.0,88,0.00,,,0.67,,2013-04-08 17:32:00,
2013-04-08 12:43:00,57.0,53.0,29.67,WNW,286,4.0,17.0,88,0.00,,,0.67,,2013-04-08 17:43:00,
2013-04-08 12:52:00,58.0,54.0,29.68,WNW,283,0.0,14.0,86,0.00,,,0.67,,2013-04-08 17:52:00,
2013-04-08 13:02:00,59.0,55.0,29.68,West,277,7.0,8.0,86,0.00,,,0.67,,2013-04-08 18:02:00,
2013-04-08 13:12:00,59.0,55.0,29.68,West,277,7.0,8.0,86,0.00,,,0.67,,2013-04-08 18:12:00,
2013-04-08 13:22:00,61.0,56.0,29.68,WNW,288,4.0,11.0,83,0.00,,,0.67,,2013-04-08 18:22:00,
2013-04-08 13:32:00,62.0,56.0,29.69,West,273,4.0,12.0,80,0.00,,,0.67,,2013-04-08 18:32:00,
2013-04-08 13:42:00,62.0,55.0,29.68,West,264,5.0,11.0,79,0.00,,,0.67,,2013-04-08 18:42:00,
2013-04-08 13:52:00,62.0,55.0,29.68,West,264,5.0,11.0,79,0.00,,,0.67,,2013-04-08 18:52:00,
2013-04-08 14:02:00,63.0,56.0,29.69,WNW,302,4.0,10.0,78,0.00,,,0.67,,2013-04-08 19:02:00,
2013-04-08 14:12:00,63.0,56.0,29.69,WNW,302,4.0,10.0,78,0.00,,,0.67,,2013-04-08 19:12:00,
2013-04-08 14:23:00,63.0,56.0,29.69,WNW,302,4.0,10.0,78,0.00,,,0.67,,2013-04-08 19:23:00,
2013-04-08 14:33:00,65.0,57.0,29.70,West,281,3.0,10.0,75,0.00,,,0.67,,2013-04-08 19:33:00,
2013-04-08 14:42:00,66.0,57.0,29.69,West,259,6.0,11.0,74,0.00,,,0.67,,2013-04-08 19:42:00,
2013-04-08 14:52:00,66.0,57.0,29.69,West,259,6.0,11.0,74,0.00,,,0.67,,2013-04-08 19:52:00,
2013-04-08 15:02:00,66.0,57.0,29.69,WNW,286,6.0,9.0,72,0.00,,,0.67,,2013-04-08 20:02:00,
2013-04-08 15:12:00,68.0,58.0,29.70,West,262,2.0,7.0,70,0.00,,,0.67,,2013-04-08 20:12:00,
2013-04-08 15:22:00,68.0,58.0,29.70,West,262,2.0,7.0,70,0.00,,,0.67,,2013-04-08 20:22:00,
2013-04-08 15:33:00,68.0,58.0,29.70,West,279,2.0,6.0,71,0.00,,,0.67,,2013-04-08 20:33:00,
2013-04-08 15:43:00,68.0,58.0,29.70,West,279,2.0,6.0,71,0.00,,,0.67,,2013-04-08 20:43:00,
2013-04-08 15:52:00,69.0,58.0,29.69,West,279,3.0,9.0,67,0.00,,,0.67,,2013-04-08 20:52:00,
2013-04-08 16:02:00,70.0,60.0,29.69,West,281,0.0,9.0,70,0.00,,,0.67,,2013-04-08 21:02:00,
2013-04-08 16:12:00,69.0,58.0,29.69,WNW,284,1.0,7.0,68,0.00,,,0.67,,2013-04-08 21:12:00,
2013-04-08 16:22:00,69.0,58.0,29.69,WNW,284,1.0,7.0,68,0.00,,,0.67,,2013-04-08 21:22:00,
2013-04-08 16:32:00,70.0,57.0,29.69,North,10,1.0,8.0,64,0.00,,,0.67,,2013-04-08 21:32:00,
2013-04-08 16:43:00,70.0,57.0,29.69,North,10,1.0,8.0,64,0.00,,,0.67,,2013-04-08 21:43:00,
2013-04-08 16:52:00,70.0,56.0,29.69,WSW,248,5.0,8.0,62,0.00,,,0.67,,2013-04-08 21:52:00,
2013-04-08 17:03:00,71.0,57.0,29.70,West,262,0.0,9.0,62,0.00,,,0.67,,2013-04-08 22:03:00,
2013-04-08 17:13:00,71.0,57.0,29.70,West,262,0.0,9.0,62,0.00,,,0.67,,2013-04-08 22:13:00,
2013-04-08 17:22:00,71.0,56.0,29.71,West,279,0.0,4.0,60,0.00,,,0.67,,2013-04-08 22:22:00,
2013-04-08 17:32:00,71.0,56.0,29.71,West,279,0.0,4.0,60,0.00,,,0.67,,2013-04-08 22:32:00,
2013-04-08 17:43:00,71.0,56.0,29.72,SSW,202,7.0,9.0,60,0.00,,,0.67,,2013-04-08 22:43:00,
2013-04-08 17:53:00,71.0,55.0,29.72,West,275,4.0,5.0,58,0.00,,,0.67,,2013-04-08 22:53:00,
2013-04-08 18:02:00,71.0,55.0,29.73,WSW,242,0.0,5.0,57,0.00,,,0.67,,2013-04-08 23:02:00,
2013-04-08 18:12:00,71.0,55.0,29.73,WSW,242,0.0,5.0,57,0.00,,,0.67,,2013-04-08 23:12:00,
2013-04-08 18:22:00,71.0,55.0,29.73,WSW,242,0.0,5.0,57,0.00,,,0.67,,2013-04-08 23:22:00,
2013-04-08 18:32:00,71.0,56.0,29.74,SW,215,0.0,3.0,60,0.00,,,0.67,,2013-04-08 23:32:00,
2013-04-08 18:42:00,71.0,56.0,29.74,SW,215,0.0,3.0,60,0.00,,,0.67,,2013-04-08 23:42:00,
2013-04-08 18:52:00,71.0,57.0,29.74,SW,215,1.0,4.0,61,0.00,,,0.67,,2013-04-08 23:52:00,
2013-04-08 19:02:00,70.0,56.0,29.74,SW,215,0.0,4.0,62,0.00,,,0.67,,2013-04-09 00:02:00,
2013-04-08 19:12:00,70.0,56.0,29.74,SW,215,0.0,4.0,62,0.00,,,0.67,,2013-04-09 00:12:00,
2013-04-08 19:22:00,69.0,57.0,29.74,SW,215,0.0,0.0,65,0.00,,,0.67,,2013-04-09 00:22:00,
2013-04-08 19:32:00,68.0,56.0,29.75,SW,215,0.0,0.0,65,0.00,,,0.67,,2013-04-09 00:32:00,
2013-04-08 19:42:00,68.0,56.0,29.75,SW,215,0.0,0.0,65,0.00,,,0.67,,2013-04-09 00:42:00,
2013-04-08 19:52:00,65.0,56.0,29.75,North,360,0.0,3.0,72,0.00,,,0.67,,2013-04-09 00:52:00,
2013-04-08 20:02:00,64.0,57.0,29.75,NNE,17,0.0,3.0,77,0.00,,,0.67,,2013-04-09 01:02:00,
2013-04-08 20:12:00,64.0,57.0,29.75,NNE,17,0.0,3.0,77,0.00,,,0.67,,2013-04-09 01:12:00,
2013-04-08 20:22:00,64.0,57.0,29.76,NNE,26,1.0,3.0,78,0.00,,,0.67,,2013-04-09 01:22:00,
2013-04-08 20:33:00,62.0,56.0,29.76,NNE,26,0.0,1.0,80,0.00,,,0.67,,2013-04-09 01:33:00,
2013-04-08 20:42:00,61.0,55.0,29.77,NNE,27,0.0,2.0,82,0.00,,,0.67,,2013-04-09 01:42:00,
2013-04-08 20:52:00,61.0,55.0,29.77,NNE,27,0.0,2.0,82,0.00,,,0.67,,2013-04-09 01:52:00,
2013-04-08 21:02:00,61.0,55.0,29.78,East,86,2.0,3.0,82,0.00,,,0.67,,2013-04-09 02:02:00,
2013-04-08 21:12:00,61.0,55.0,29.78,East,86,2.0,3.0,82,0.00,,,0.67,,2013-04-09 02:12:00,
2013-04-08 21:22:00,61.0,55.0,29.78,East,86,2.0,3.0,82,0.00,,,0.67,,2013-04-09 02:22:00,
2013-04-08 21:32:00,61.0,55.0,29.78,East,86,2.0,3.0,82,0.00,,,0.67,,2013-04-09 02:32:00,
2013-04-08 21:43:00,59.0,54.0,29.79,ENE,71,4.0,5.0,85,0.00,,,0.67,,2013-04-09 02:43:00,
2013-04-08 21:52:00,59.0,54.0,29.79,ENE,71,4.0,5.0,85,0.00,,,0.67,,2013-04-09 02:52:00,
2013-04-08 22:02:00,58.0,54.0,29.80,ENE,76,0.0,5.0,86,0.00,,,0.67,,2013-04-09 03:02:00,
2013-04-08 22:12:00,58.0,54.0,29.80,ENE,76,0.0,5.0,86,0.00,,,0.67,,2013-04-09 03:12:00,
2013-04-08 22:21:00,58.0,54.0,29.80,ENE,72,5.0,7.0,88,0.00,,,0.67,,2013-04-09 03:21:00,
2013-04-08 22:33:00,57.0,53.0,29.80,ENE,76,4.0,7.0,88,0.00,,,0.67,,2013-04-09 03:33:00,
2013-04-08 22:43:00,57.0,53.0,29.80,ENE,76,4.0,7.0,88,0.00,,,0.67,,2013-04-09 03:43:00,
2013-04-08 22:53:00,57.0,53.0,29.80,ENE,61,2.0,8.0,88,0.00,,,0.67,,2013-04-09 03:53:00,
2013-04-08 23:03:00,57.0,53.0,29.81,East,82,5.0,7.0,88,0.00,,,0.67,,2013-04-09 04:03:00,
2013-04-08 23:13:00,57.0,53.0,29.81,East,82,5.0,7.0,88,0.00,,,0.67,,2013-04-09 04:13:00,
2013-04-08 23:23:00,57.0,53.0,29.82,ENE,78,0.0,5.0,88,0.00,,,0.67,,2013-04-09 04:23:00,
2013-04-08 23:32:00,57.0,53.0,29.82,ENE,78,0.0,5.0,88,0.00,,,0.67,,2013-04-09 04:32:00,
2013-04-08 23:42:00,57.0,53.0,29.82,ENE,78,0.0,5.0,88,0.00,,,0.67,,2013-04-09 04:42:00,
2013-04-08 23:52:00,57.0,53.0,29.82,ENE,78,0.0,5.0,88,0.00,,,0.67,,2013-04-09 04:52:00,